Regional Weather Roundup
Issued by NWS Newport/Morehead, NC

Current Version | Previous Version | Text Only | Print | Product List | Glossary On
Versions: 1 2 3 4 5 6 7 8 9 10 11 12 13 14 15 16 17 18 19 20 21 22 23 24 25 26 27 28 29 30 31 32 33 34 35 36 37 38 39 40 41 42 43 44 45 46 47 48 49 50
000
ASUS42 KMHX 261725
RWRMHX
WEATHER ROUNDUP FOR EASTERN NORTH CAROLINA
NATIONAL WEATHER SERVICE NEWPORT/MOREHEAD CITY NC
100 PM EDT WED APR 26 2017

NOTE: "FAIR" INDICATES FEW OR NO CLOUDS BELOW 12,000 FEET
WITH NO SIGNIFICANT WEATHER AND/OR OBSTRUCTIONS TO VISIBILITY

NCZ015>017-031-032-045>047-102-103-261800-
NORTH COAST

CITY           SKY/WX    TMP DP  RH WIND       PRES   REMARKS
EDENTON        CLOUDY    71  59  67 W7        29.83F
ELIZABETH CITY CLOUDY    69  61  75 W10       29.81F
KITTY HAWK     CLOUDY    64  61  90 CALM      29.81F
MANTEO         CLOUDY    64  59  85 NW7       29.83S

$$

NCZ045>047-081-094-103-104-261800-
CENTRAL COAST

CITY           SKY/WX    TMP DP  RH WIND       PRES   REMARKS
FRISCO         CLOUDY    70  60  70 W9        29.84S

$$

NCZ095-097-098-100-101-261800-
SOUTHERN COAST

CITY           SKY/WX    TMP DP  RH WIND       PRES   REMARKS
BEAUFORT       SUNNY     71  65  81 SW13      29.84F
CEDAR ISLAND   NOT AVBL
JACKSONVILLE   NOT AVBL
PINEY ISLAND   MOSUNNY  N/A N/A N/A W12       29.84
WILMINGTON     SUNNY     77  61  57 W10       29.85F


$$

NCZ011>013-027>030-043-044-078>080-089-090>093-098-261800-
COASTAL PLAIN

CITY           SKY/WX    TMP DP  RH WIND       PRES   REMARKS
AHOSKIE          N/A     71  59  66 NW3       29.81F
CLINTON        MOSUNNY   75  63  64 SW9       29.85F
ELIZABETHTOWN  SUNNY     77  62  59 SW7       29.85F
GOLDSBORO      CLOUDY    74  64  71 W7        29.82F
GREENVILLE     PTSUNNY   73  61  64 W7        29.85F
HAVELOCK       PTSUNNY   76  60  57 W15       29.84F
KENANSVILLE    SUNNY     75  61  60 W5        29.84F
KINSTON        MOSUNNY   73  61  64 SW5       29.84F
NEW BERN       CLOUDY    75  63  66 W9        29.85F
RICHLANDS      MOSUNNY   78  63  59 W9        29.85F
ROCKY MOUNT    CLOUDY    74  62  66 SW7       29.82F
WASHINGTON     MOSUNNY   73  61  64 W6        29.82F
WHITEVILLE     SUNNY     76  61  59 S9        29.85F

$$

AMZ130-135-150-152-154-156-158-170-250-252-270-ANZ085-086-088-633-658-670-261800-
MARINE OBSERVATIONS

STATION/POSITION TIME  TEMP    WIND        PRES    WAVE   SWELL
                       AIR SEA DIR/SP/G            HT/PER HT/PER
                 (UTC) (F)     (DEG/KT/KT) (MB)    (FT/S) (FT/S)
CHESAPEAKE LIGHT NOT AVBL
64 E VA BEACH    1650   57 55  240/  8/ 10 1009.8    7/10   7/10
DUCK             1700   64 60  240/ 10/ 12 1009.2
2 E DUCK         1700      60                N/A     4/10   2/11
OREGON INLET     1700   65 65  250/  5/  8 1009.8
13E OREGON INLT  1648      61                N/A     5/10   5/10
HATTERAS CG      1700   67 68  270/ 10/ 12 1010.0
DIAMOND BUOY     1650   69 76  280/ 12/ 14 1010.5    6/ 9   5/ 9
CAPE LOOKOUT     1700   68     240/  9/ 12 1010.5
BEAUFORT LAB     1700   69 66  210/  9/ 13 1009.7
30 SE NEW RVR IN 1708   67     250/  8/ 12 1011.6
30 SE NEW RVR IN 1643      71                N/A     4/ 8   2/11
27 SE WRIGHTSVLE 1708   68 72  230/  6/ 10 1011.4
5 SE WRIGHTSVLE  1708   69 71  190/ 12/ 16 1011.0
225 S CAPE HAT   1650   74 75  230/ 16/ 19 1012.9    8/ 9   5/ 9
41 SE CHARLESTON 1700   72 73  240/ 14/ 17 1011.9

$$



USA.gov is the U.S. government's official web portal to all federal, state and local government web resources and services.